Terminal Aerodrome Forecast
Issued by NWS Shreveport, LA

Home | Current Version | Previous Version | Text Only | Print | Product List | Glossary On
Versions: 1 2 3 4 5 6 7 8 9 10 11 12 13 14
000
FTUS44 KSHV 211100
TAFSHV
TAF
KSHV 211120Z 2112/2212 00000KT P6SM FEW045
     FM211400 09004KT P6SM BKN045
     FM211800 05006KT P6SM SCT050
     FM220000 05003KT P6SM SKC=

USA.gov is the U.S. government's official web portal to all federal, state and local government web resources and services.